STARLINK-33979 (63867 NORAD) Tracking and Keplerian Element Data

This shows tracking and keplerian element data for the satellite.

Feedback or suggestion? Click here.




ElementValue
Catalog63867
NameSTARLINK-33979
Epoch Orbit573
Epoch Day354.00002315
Epoch Year2025
RAAN75.4345
Inclination70.0017
Eccentricity0.0003521
Argument of Perigee269.1843
Mean Anonmoly148.4733
Mean Motion14.98316537
Decay Rate0.00022492
L11 63867U 25094D 25354.00002315 .00022492 00000+0 18873-2 0 9997
L22 63867 70.0017 75.4345 0003521 269.1843 148.4733 14.98316537 5731



Live tracking and technical data element details for STARLINK-33979 (NORAD 63867). STARLINK-33979 can be tracked NOW for your location showing map with azimuth and elevation plus other details from your city location.







IsCatalogInMostPopularTable: catalog: 63867, numindb: 7
Update: records affected: 1



GetName: 63867 STARLINK-33979

Hit Count: updated at: Mon, 20 Apr 2026 09:05:37 GMT